When you browse on this site, cookies collect data to enhance your experience and personalize the content and advertising you see.
Visit our Privacy Policy to learn more. By continuing to use the site, you agree to this use of cookies and data.
  • en France
  • Liste des pays
  • À 7 jours
  • Température de l'eau
  • Carte satellitaire
  • Carte météo
  • Widgets météo
  • user-avatar
    Se connecter

    Météo par heure à Alajuela

    Ce jour, 17 Novembre, Samedi

    Heure Température Précipitation Vent Pression Humidité
    00:00 +21°C° 0 mm 1 m/s 680 mmHg 87%
    01:00 +21°C° 0 mm 1 m/s 680 mmHg 86%
    02:00 +21°C° 0 mm 1 m/s 680 mmHg 86%
    03:00 +21°C° 0 mm 1 m/s 680 mmHg 85%
    04:00 +21°C° 0 mm 1 m/s 680 mmHg 85%
    05:00 +21°C° 0 mm 1 m/s 680 mmHg 85%
    06:00 +21°C° 0 mm 1 m/s 680 mmHg 85%
    07:00 +23°C° 0 mm 1 m/s 681 mmHg 81%
    08:00 +24°C° 0 mm 1 m/s 681 mmHg 76%
    09:00 +25°C° 0 mm 2 m/s 682 mmHg 71%
    10:00 +26°C° 0.1 mm 2 m/s 682 mmHg 69%
    11:00 +27°C° 0.1 mm 2 m/s 682 mmHg 67%
    12:00 +28°C° 0.1 mm 2 m/s 681 mmHg 65%
    13:00 +27°C° 0.4 mm 2 m/s 681 mmHg 69%
    14:00 +26°C° 0.4 mm 2 m/s 680 mmHg 74%
    15:00 +25°C° 0.4 mm 1 m/s 680 mmHg 78%
    16:00 +24°C° 0.3 mm 1 m/s 679 mmHg 83%
    17:00 +23°C° 0.3 mm 1 m/s 679 mmHg 88%
    18:00 +22°C° 0.3 mm 1 m/s 679 mmHg 92%
    19:00 +22°C° 0 mm 1 m/s 680 mmHg 91%
    20:00 +21°C° 0 mm 1 m/s 680 mmHg 90%
    21:00 +21°C° 0 mm 1 m/s 681 mmHg 89%
    22:00 +21°C° 0 mm 1 m/s 680 mmHg 88%
    23:00 +21°C° 0 mm 1 m/s 680 mmHg 88%

    Demain, 18 Novembre, Dimanche

    Heure Température Précipitation Vent Pression Humidité
    00:00 +21°C° 0 mm 1 m/s 680 mmHg 87%
    01:00 +21°C° 0 mm 1 m/s 680 mmHg 87%
    02:00 +21°C° 0 mm 1 m/s 680 mmHg 87%
    03:00 +21°C° 0 mm 1 m/s 679 mmHg 87%
    04:00 +21°C° 0 mm 1 m/s 679 mmHg 86%
    05:00 +21°C° 0 mm 1 m/s 680 mmHg 86%
    06:00 +21°C° 0 mm 1 m/s 680 mmHg 86%
    07:00 +23°C° 0 mm 1 m/s 681 mmHg 81%
    08:00 +24°C° 0 mm 2 m/s 681 mmHg 77%
    09:00 +25°C° 0 mm 2 m/s 682 mmHg 73%
    10:00 +26°C° 0.2 mm 2 m/s 682 mmHg 70%
    11:00 +27°C° 0.2 mm 2 m/s 682 mmHg 67%
    12:00 +28°C° 0.2 mm 2 m/s 682 mmHg 65%
    13:00 +28°C° 0.2 mm 2 m/s 681 mmHg 67%
    14:00 +27°C° 0.2 mm 2 m/s 680 mmHg 69%
    15:00 +27°C° 0.2 mm 2 m/s 680 mmHg 71%
    16:00 +25°C° 0.1 mm 1 m/s 680 mmHg 78%
    17:00 +24°C° 0.1 mm 1 m/s 679 mmHg 84%
    18:00 +22°C° 0.1 mm 1 m/s 679 mmHg 91%
    19:00 +22°C° 0 mm 1 m/s 680 mmHg 89%
    20:00 +22°C° 0 mm 1 m/s 680 mmHg 88%
    21:00 +21°C° 0 mm 1 m/s 681 mmHg 87%
    22:00 +21°C° 0 mm 1 m/s 681 mmHg 86%
    23:00 +21°C° 0 mm 1 m/s 681 mmHg 86%

    Après-demain, 19 Novembre, Lundi

    Heure Température Précipitation Vent Pression Humidité
    00:00 +21°C° 0 mm 1 m/s 680 mmHg 86%
    01:00 +21°C° 0 mm 1 m/s 680 mmHg 86%
    02:00 +21°C° 0 mm 1 m/s 680 mmHg 85%
    03:00 +21°C° 0 mm 1 m/s 679 mmHg 85%
    04:00 +21°C° 0.1 mm 1 m/s 680 mmHg 85%
    05:00 +21°C° 0.1 mm 1 m/s 680 mmHg 86%
    06:00 +21°C° 0.1 mm 1 m/s 680 mmHg 86%
    07:00 +23°C° 0.1 mm 1 m/s 681 mmHg 82%
    08:00 +24°C° 0.1 mm 2 m/s 681 mmHg 78%
    09:00 +25°C° 0.1 mm 2 m/s 682 mmHg 74%
    10:00 +26°C° 0.2 mm 2 m/s 682 mmHg 72%
    11:00 +26°C° 0.2 mm 2 m/s 681 mmHg 71%
    12:00 +27°C° 0.2 mm 2 m/s 681 mmHg 69%
    13:00 +26°C° 0.5 mm 2 m/s 680 mmHg 74%
    14:00 +25°C° 0.5 mm 1 m/s 679 mmHg 79%
    15:00 +24°C° 0.5 mm 1 m/s 679 mmHg 83%
    16:00 +24°C° 0.4 mm 1 m/s 679 mmHg 86%
    17:00 +23°C° 0.4 mm 1 m/s 679 mmHg 90%
    18:00 +22°C° 0.4 mm 1 m/s 679 mmHg 93%
    19:00 +22°C° 0.1 mm 1 m/s 680 mmHg 92%
    20:00 +21°C° 0.1 mm 1 m/s 680 mmHg 92%
    21:00 +21°C° 0.1 mm 1 m/s 681 mmHg 91%
    22:00 +21°C° 0.2 mm 1 m/s 681 mmHg 91%
    23:00 +21°C° 0.2 mm 1 m/s 680 mmHg 91%

    20 Novembre, Mardi

    Heure Température Précipitation Vent Pression Humidité
    00:00 +21°C° 0.2 mm 1 m/s 680 mmHg 90%
    01:00 +21°C° 0.3 mm 1 m/s 680 mmHg 90%
    02:00 +21°C° 0.3 mm 1 m/s 679 mmHg 90%
    03:00 +21°C° 0.3 mm 1 m/s 679 mmHg 90%
    04:00 +21°C° 0.2 mm 1 m/s 679 mmHg 90%
    05:00 +21°C° 0.2 mm 1 m/s 679 mmHg 90%
    06:00 +21°C° 0.2 mm 1 m/s 680 mmHg 90%
    07:00 +22°C° 0 mm 1 m/s 680 mmHg 83%
    08:00 +24°C° 0 mm 1 m/s 681 mmHg 77%
    09:00 +26°C° 0 mm 2 m/s 682 mmHg 70%
    10:00 +26°C° 0.2 mm 2 m/s 682 mmHg 69%
    11:00 +27°C° 0.2 mm 2 m/s 681 mmHg 68%
    12:00 +27°C° 0.2 mm 2 m/s 681 mmHg 67%
    13:00 +27°C° 0.5 mm 2 m/s 680 mmHg 71%
    14:00 +26°C° 0.5 mm 1 m/s 680 mmHg 75%
    15:00 +25°C° 0.5 mm 1 m/s 679 mmHg 79%
    16:00 +24°C° 0.3 mm 1 m/s 679 mmHg 83%
    17:00 +23°C° 0.3 mm 1 m/s 680 mmHg 87%
    18:00 +22°C° 0.3 mm 1 m/s 680 mmHg 91%
    19:00 +22°C° 0.1 mm 1 m/s 680 mmHg 90%
    20:00 +21°C° 0.1 mm 1 m/s 681 mmHg 89%
    21:00 +21°C° 0.1 mm 1 m/s 681 mmHg 89%
    22:00 +21°C° 0.2 mm 1 m/s 681 mmHg 88%
    23:00 +21°C° 0.2 mm 1 m/s 681 mmHg 88%

    21 Novembre, Mercredi

    Heure Température Précipitation Vent Pression Humidité
    00:00 +21°C° 0.2 mm 1 m/s 680 mmHg 88%
    01:00 +21°C° 0.1 mm 1 m/s 680 mmHg 88%
    02:00 +21°C° 0.1 mm 1 m/s 680 mmHg 88%
    03:00 +21°C° 0.1 mm 1 m/s 679 mmHg 88%
    04:00 +21°C° 0 mm 1 m/s 680 mmHg 88%
    05:00 +21°C° 0 mm 1 m/s 680 mmHg 87%
    06:00 +21°C° 0 mm 1 m/s 681 mmHg 87%
    07:00 +23°C° 0 mm 1 m/s 681 mmHg 80%
    08:00 +25°C° 0 mm 1 m/s 682 mmHg 73%
    09:00 +26°C° 0 mm 2 m/s 683 mmHg 66%
    10:00 +26°C° 0.2 mm 2 m/s 682 mmHg 68%
    11:00 +26°C° 0.2 mm 2 m/s 682 mmHg 70%
    12:00 +26°C° 0.2 mm 2 m/s 681 mmHg 72%
    13:00 +25°C° 2.1 mm 2 m/s 680 mmHg 79%
    14:00 +24°C° 2.1 mm 1 m/s 680 mmHg 85%
    15:00 +23°C° 2.1 mm 1 m/s 679 mmHg 92%
    16:00 +23°C° 3 mm 1 m/s 679 mmHg 94%
    17:00 +22°C° 3 mm 1 m/s 680 mmHg 95%
    18:00 +22°C° 3 mm 1 m/s 680 mmHg 97%
    19:00 +22°C° 2 mm 1 m/s 681 mmHg 97%
    20:00 +21°C° 2 mm 1 m/s 681 mmHg 96%
    21:00 +19°C° 2 mm 0 m/s 681 mmHg 96%
    22:00 +19°C° 0.6 mm 0 m/s 681 mmHg 96%
    23:00 +21°C° 0.6 mm 1 m/s 681 mmHg 96%

    22 Novembre, Jeudi

    Heure Température Précipitation Vent Pression Humidité
    00:00 +21°C° 0.6 mm 1 m/s 680 mmHg 95%
    01:00 +21°C° 0.3 mm 1 m/s 680 mmHg 95%
    02:00 +21°C° 0.3 mm 1 m/s 680 mmHg 95%
    03:00 +21°C° 0.3 mm 1 m/s 680 mmHg 95%
    04:00 +21°C° 0.1 mm 1 m/s 680 mmHg 95%
    05:00 +21°C° 0.1 mm 1 m/s 680 mmHg 94%
    06:00 +21°C° 0.1 mm 1 m/s 680 mmHg 94%
    07:00 +22°C° 0.2 mm 1 m/s 681 mmHg 90%
    08:00 +23°C° 0.2 mm 1 m/s 682 mmHg 87%
    09:00 +24°C° 0.2 mm 1 m/s 682 mmHg 83%
    10:00 +24°C° 0.8 mm 1 m/s 682 mmHg 83%
    11:00 +25°C° 0.8 mm 1 m/s 681 mmHg 83%
    12:00 +25°C° 0.8 mm 1 m/s 680 mmHg 83%
    13:00 +25°C° 0.7 mm 1 m/s 680 mmHg 84%
    14:00 +24°C° 0.7 mm 1 m/s 679 mmHg 86%
    15:00 +24°C° 0.7 mm 1 m/s 679 mmHg 87%
    16:00 +23°C° 0.7 mm 1 m/s 679 mmHg 90%
    17:00 +22°C° 0.7 mm 1 m/s 679 mmHg 92%
    18:00 +19°C° 0.7 mm 0 m/s 680 mmHg 95%
    19:00 +19°C° 0.4 mm 0 m/s 680 mmHg 95%
    20:00 +19°C° 0.4 mm 0 m/s 680 mmHg 94%
    21:00 +19°C° 0.4 mm 0 m/s 681 mmHg 94%
    22:00 +19°C° 0.8 mm 0 m/s 680 mmHg 94%
    23:00 +19°C° 0.8 mm 0 m/s 680 mmHg 94%
    Voir plus